Regional Weather Roundup
Issued by NWS

Home | Current Version | Previous Version | Text Only | Print | Product List | Glossary On
Versions: 1 2 3 4 5 6 7 8 9 10 11 12 13 14 15 16 17 18 19 20 21 22 23 24 25 26 27 28 29 30 31 32 33 34 35 36 37 38 39 40 41 42 43 44 45 46 47 48 49 50
000
ASUS46 KSEW 281810
RWRWA

WASHINGTON REGIONAL WEATHER ROUNDUP
NATIONAL WEATHER SERVICE SEATTLE WA
1000 AM PST WED JAN 28 2015

NOTE:"FAIR" INDICATES FEW OR NO CLOUDS BELOW 12,000 FEET WITH NO
SIGNIFICANT WEATHER AND/OR OBSTRUCTIONS TO VISIBILITY.

WAZ505-507>509-281900-
SEATTLE, TACOMA, EVERETT, AND VICINITY

CITY           SKY/WX    TMP DP  RH WIND       PRES   REMARKS
EVERETT        CLOUDY    46  42  86 CALM      30.39R
6HR MIN TEMP:  41; 6HR MAX TEMP:  46;

BOEING FIELD   PTSUNNY   51  43  74 CALM      30.39R
6HR MIN TEMP:  48; 6HR MAX TEMP:  51;

RENTON         CLOUDY    47  45  93 NW3       30.39R
6HR MIN TEMP:  45; 6HR MAX TEMP:  47;

SEATAC AIRPORT CLOUDY    46  44  93 CALM      30.39R FOG
6HR MIN TEMP:  43; 6HR MAX TEMP:  47;

JBLM-MCCHORD   CLOUDY    46  46 100 NE5       30.38R
6HR MIN TEMP:  44; 6HR MAX TEMP:  47;

PUYALLUP       CLOUDY    46  45  93 CALM      30.38R
BREMERTON      CLOUDY    46  45  93 CALM      30.41R
6HR MIN TEMP:  45; 6HR MAX TEMP:  46;

JBLM-FT LEWIS  CLOUDY    47  46  99 NE6       30.38R
6HR MIN TEMP:  44; 6HR MAX TEMP:  47;

TACOMA NARROWS CLOUDY    47  43  86 CALM      30.38R
6HR MIN TEMP:  44; 6HR MAX TEMP:  47;

$$

WAZ001-503-506-510-514-515-281900-
NORTH INTERIOR

CITY           SKY/WX    TMP DP  RH WIND       PRES   REMARKS
BELLINGHAM     CLOUDY    48  42  80 N5        30.39R
6HR MIN TEMP:  44; 6HR MAX TEMP:  48;

FRIDAY HARBOR  CLOUDY    47  43  86 NE5       30.41R
6HR MIN TEMP:  42; 6HR MAX TEMP:  47;

EASTSOUND      CLOUDY    46  45  93 CALM      30.39R
PORT ANGELES   PTSUNNY   42  36  79 SW5       30.39R
6HR MIN TEMP:  35; 6HR MAX TEMP:  42;

NAS WHIDBEY    CLOUDY    50  41  71 CALM      30.40R
6HR MIN TEMP:  47; 6HR MAX TEMP:  50; 6HR PCP: TRACE;

ARLINGTON      CLOUDY    45  41  87 CALM      30.41R
6HR MIN TEMP:  39; 6HR MAX TEMP:  45;

BURLINGTON     PTSUNNY   46 N/A N/A NE3       30.41R
$$

WAZ020-022-039-040-504-511-512-281900-
SOUTHWEST INTERIOR

CITY           SKY/WX    TMP DP  RH WIND       PRES   REMARKS
SHELTON        CLOUDY    47  43  86 N6        30.36R
6HR MIN TEMP:  44; 6HR MAX TEMP:  47;

OLYMPIA        CLOUDY    46  43  89 N7        30.38R
6HR MIN TEMP:  40; 6HR MAX TEMP:  46;

CHEHALIS       CLOUDY    46  45  93 CALM      30.37S
KELSO          CLOUDY    48  45  87 CALM      30.40R
6HR MIN TEMP:  46; 6HR MAX TEMP:  48;

VANCOUVER      CLOUDY    50  48  93 CALM      30.36R
6HR MIN TEMP:  47; 6HR MAX TEMP:  50;

SCAPPOOSE, OR  CLOUDY    50  48  93 CALM      30.35R
6HR MIN TEMP:  47; 6HR MAX TEMP:  50;

PORTLAND, OR   FOG       49  49 100 W3        30.36R VSB 1/8
6HR MIN TEMP:  47; 6HR MAX TEMP:  49; 6HR PCP:  0.01;

$$

WAZ021-516-517-281900-
WASHINGTON COAST

CITY           SKY/WX    TMP DP  RH WIND       PRES   REMARKS
FORKS          SUNNY     40  37  89 E3        30.37R
6HR MIN TEMP:  33; 6HR MAX TEMP:  40;

HOQUIAM        CLOUDY    42  42 100 E9        30.36R FOG
6HR MIN TEMP:  35; 6HR MAX TEMP:  42;

ASTORIA, OR    CLOUDY    48  46  93 E5        30.33R
6HR MIN TEMP:  41; 6HR MAX TEMP:  49;

$$

WAZ019-023-024-040-518-519-281900-
CASCADE MOUNTAINS AND COLUMBIA GORGE

CITY           SKY/WX    TMP DP  RH WIND       PRES   REMARKS
TROUTDALE, OR  FOG       50  48  93 VRB3      30.35R VSB 1/8
6HR MIN TEMP:  49; 6HR MAX TEMP:  50; 6HR PCP:  0.01;

THE DALLES, OR CLOUDY    43  39  86 E9        30.39R
6HR MIN TEMP:  40; 6HR MAX TEMP:  47;

$$

WAZ026-027-041>044-520-521-281900-
EAST SLOPES

CITY           SKY/WX    TMP DP  RH WIND       PRES   REMARKS
OMAK           CLOUDY    35  33  92 W3        30.41R
6HR MIN TEMP:  34; 6HR MAX TEMP:  36;

WENATCHEE      FOG       34  33  96 CALM      30.42R VSB 1
6HR MIN TEMP:  34; 6HR MAX TEMP:  36;

ELLENSBURG     SUNNY     43  33  68 SE5       30.35R
6HR MIN TEMP:  33; 6HR MAX TEMP:  43;

YAKIMA         FOG       32  30  92 CALM      30.41R VSB<1/4
6HR MIN TEMP:  30; 6HR MAX TEMP:  33;

$$

WAZ028-034-035-281900-
COLUMBIA BASIN

CITY           SKY/WX    TMP DP  RH WIND       PRES   REMARKS
EPHRATA        CLOUDY    35  34  96 NE6       30.41R
6HR MIN TEMP:  32; 6HR MAX TEMP:  35;

MOSES LAKE     CLOUDY    35  34  96 NE9       30.42R
6HR MIN TEMP:  33; 6HR MAX TEMP:  35;

PASCO          CLOUDY    36  35  96 N5        30.45R FOG
6HR MIN TEMP:  34; 6HR MAX TEMP:  36;

HERMISTON, OR  FOG       38  37  97 N3        30.40R VSB<1/4
6HR MIN TEMP:  29; 6HR MAX TEMP:  38;

$$

WAZ036>038-281900-
NORTHEAST WASHINGTON

CITY           SKY/WX    TMP DP  RH WIND       PRES   REMARKS
SPOKANE GEIGER FOG       34  34 100 NE8       30.35R VSB 1/8
6HR MIN TEMP:  32; 6HR MAX TEMP:  34; 6HR PCP: TRACE;

SPOKANE FELTS  CLOUDY    38  34  85 CALM      30.38R FOG
6HR MIN TEMP:  36; 6HR MAX TEMP:  38;

FAIRCHILD AFB  FOG       34  34 100 NE7       30.35R VSB 1/4
6HR MIN TEMP:  31; 6HR MAX TEMP:  34; 6HR PCP: TRACE;

COEURDALENE,ID CLOUDY    37  34  87 CALM      30.36R
6HR MIN TEMP:  36; 6HR MAX TEMP:  37;

DEER PARK      CLOUDY    34  32  92 NE7       30.38R
6HR MIN TEMP:  33; 6HR MAX TEMP:  34;

$$

WAZ029>033-281900-
SOUTHEAST WASHINGTON

CITY           SKY/WX    TMP DP  RH WIND       PRES   REMARKS
PULLMAN        CLOUDY    41  38  89 S3        30.36R
6HR MIN TEMP:  39; 6HR MAX TEMP:  41;

LEWISTON, ID   FOG       37  37 100 CALM      30.39R VSB 1
6HR MIN TEMP:  31; 6HR MAX TEMP:  37;

WALLA WALLA    FOG       36  35  96 S6        30.39R VSB<1/4
6HR MIN TEMP:  33; 6HR MAX TEMP:  46;

PENDLETON, OR  SUNNY     46  40  79 SE3       30.36R
6HR MIN TEMP:  38; 6HR MAX TEMP:  46;

$$



USA.gov is the U.S. government's official web portal to all federal, state and local government web resources and services.